STARLINK-37379, 69522

Orbit data source: Space-Track

STARLINK-37379, 69522 is a payload satellite owned by SpaceX/Seattle (US) in LEO that was launched on Fri, 12 Jun 2026 UTC via an FALCON 9 launch vehicle from the Air Force Eastern Test Range (AFETR). Payload-class satellites include a variety of spacecraft equipped with specific instruments for various scientific and technological missions. These include communications satellites like Starlink; space stations such as the ISS; scientific satellites like the Hubble; Earth observation satellites from companies like Planet Labs, Umbra, and HawkEye 360; GPS; miniature CubeSats for education and research; and military/defense satellites.

Loading next visibility...
Identifier
69522, 2026-133Q
Orbit
LEO
Country
Flag of USUS
Related business
Manufacturer
SpaceX/Seattle
Mission
Operational spacecraft
Bus & Motor
STARLINK V2MO, Unknown motor
Mass
575 kg wet, ~530 kg dry
Launch date (UTC)
2026-06-12 (1 week ago)
Launch vehicle
FALCON 9
Launch site
Air Force Eastern Test Range (AFETR)
Object type
Payload
Rocket body
Debris
Shape & HBR
Unknown
Radar Cross Section
RCS unknown

Expand to show TLE details & history
Last TLE update: 10 hours ago

TLE from 10 hours ago
0 STARLINK-37379
1 69522U 26133Q   26171.41668980 -.01702085  90481-3 -27757-2 0  9998
2 69522  53.1579 306.0747 0000691  78.0989 343.4751 16.02753377  2437
Epoch: 2026-06-20T10:00Z
TLE epoch observation values (Epoch: 2026-06-20T10:00:01.998Z)
Latitude
44.87659°
Longitude
-64.68154°
Altitude
270.992 km
Speed
7.751 km/s
True Right ascension
23h 35m 50s
True Declination
44° 41' 31"
Sunlit
Object was in daylight at epoch
Visualization orbit readout
Latitude
Unknown
Longitude
Unknown
Altitude
Unknown
Speed
Unknown
Apparent Right ascension
Unknown
Apparent Declination
Unknown
Sunlit
N/A
Visualization observer readout
Local Sidereal Time
07:17:29
Azimuth
Unknown
Elevation
Unknown
Doppler factor
Unknown
Orbital elements
Apogee altitude
267.521 km
Perigee altitude
266.603 km
Semi-major axis
6,645.199 km
Eccentricity
0.00007
Inclination
53.1579°
RAAN
306.0747°
Arg. of periapsis
78.0989°
True anomaly
343.47285°
Mean anomaly
343.4751°
Eccentric anomaly
343.47397°
Mean motion
4.00665 °/min
Orbital period
89.85 mins
BSTAR
-0.0027757
Loading maneuver chart data...
Computing Atmospheric mass density...
Loading historical data...
Loading historical data...
Loading historical data...
Loading historical data...
Loading historical data...
Loading historical data...
Loading historical data...

Documentation

Showing up to 5 results
|